Location: Rio Negrinho
(26.2394°S, 49.4999°W)
Time: 01:37:12
(UTC+00:00)

SEDSat Delta rocket - Pass Details

Date: 05 October 2020
Orbit: 533 x 1000 km, 31.4° (Epoch: 20 October)

Event Time Altitude Azimuth Distance (km) Brightness Sun altitude
Rises 22:17:15 0° 280° (W) 3,529 8.3 -13.5°
Reaches altitude 10° 22:20:02 10° 277° (W) 2,523 7.4 -14.1°
Maximum altitude 22:26:01 66° 195° (SSW) 863 3.8 -15.4°
Enters shadow 22:29:53 19° 115° (ESE) 1,728 4.9 -16.2°
